Location: Bluff Heights
(33.7692°N, 118.1592°W)
Time: 02:51:53
(UTC+00:00)

S-56A Canister/Altair - Pass Details

Date: 26 July 2021
Orbit: 632 x 2500 km, 38.9° (Epoch: 18 September)

Event Time Altitude Azimuth Distance (km) Brightness Sun altitude
Rises 07:00:08 0° 293° (WNW) 5,754 12.5 -35.0°
Reaches altitude 10° 07:04:29 10° 288° (WNW) 4,506 11.7 -35.3°
Enters shadow 07:13:30 40° 246° (WSW) 2,237 9.6 -35.8°
